* Astronomy

Members Login
Username 
 
Password 
    Remember Me  
Post Info TOPIC: Asteroid 2011 CK50


L

Posts: 131433
Date:
RE: Asteroid 2011 CK50
Permalink  
 


Object
Name
Close
Approach
Date
Miss
Distance
(AU)
Miss
Distance
(LD)
Estimated
Diameter*
H
(mag)
Relative
Velocity
(km/s)
(2011 CK50) 2011-Feb-24 0.1452 56.5 39 m - 88 m 24.2 7.39


__________________


L

Posts: 131433
Date:
Permalink  
 

Orbital elements:
2011 CK50 Earth MOID = 0.0513 AU
Epoch 2011 Feb. 8.0 TT = JDT 2455600.5 MPC
M 199.40140 (2000.0) P Q
n 1.20372483 Peri. 176.69569 +0.65273079 +0.75578057
a 0.8752213 Node 134.04381 -0.69673362 +0.62598782
e 0.3247946 Incl. 4.17475 -0.29749755 +0.19218475
P 0.82 H 24.1 G 0.15 U 9

MPEC 2011 - C88



__________________
Page 1 of 1  sorted by
 
Quick Reply

Please log in to post quick replies.



Create your own FREE Forum
Report Abuse
Powered by ActiveBoard